Location: Unspecified
(0.0000°N, 0.0000°E)
Time: 01:23:27
(UTC+00:00)

A-11 Canister half - Pass Details

Date: 26 November 2019
Orbit: 1515 x 1685 km, 47.2° (Epoch: 10 December)

Event Time Altitude Azimuth Distance (km) Brightness Sun altitude
Rises 11:00:19 0° 196° (SSW) 4,677 11.8 66.1°
Reaches altitude 10° 11:04:09 10° 183° (S) 3,710 11.5 66.6°
Maximum altitude 11:11:23 25° 131° (SE) 2,773 11.2 67.3°
Drops below altitude 10° 11:18:43 10° 81° (E) 3,800 11.3 67.9°
Sets 11:22:38 0° 68° (ENE) 4,812 11.6 68.2°
